OBJECT BA (43806 NORAD) Tracking and Keplerian Element Data

This shows tracking and keplerian element data for the satellite.

Feedback or suggestion? Click here.




ElementValue
Catalog43806
NameOBJECT BA
Epoch Orbit538
Epoch Day10.83097834
Epoch Year2019
RAAN84.6023
Inclination97.7617
Eccentricity0.0016129
Argument of Perigee133.5888
Mean Anonmoly226.6674
Mean Motion14.95180872
Decay Rate1.52E-06
L11 43806U 18099BA 19010.83097834 .00000152 00000-0 19113-4 0 9998
L22 43806 97.7617 84.6023 0016129 133.5888 226.6674 14.95180872 5382

Live tracking and technical data element details for OBJECT BA (NORAD 43806). OBJECT BA can be tracked NOW for your location showing map with azimuth and elevation plus other details from your city location.

Track the satellite on the map from your city or location and see movement details for azimuth, elevation, latitude, longitude, range, height, and movement on the map or in text.







IsCatalogInMostPopularTable: catalog: 43806, numindb: 15
Update: records affected: 1



GetName: 43806 OBJECT BA

Hit Count: updated at: Thu, 17 Jan 2019 15:36:58 GMT